KLM1915 KATL-EHAM

Flight info

Callsign KLM1915
Flight time N/A
Altitude 37000
Route PLMMR3 BURGG Q22 RBV Q430 ACK DCT TUSKY N501B ALLRY/M082F390 DCT 51N050W 53N040W 54N030W 54N020W DCT DOGAL DCT BEXET/N0472F390 DCT DEVOL DCT LIFFY DCT DOLAS L603 LAMSO LAMSO2A
Aircraft A333/H-SDE3GHIJ2J3J5M1RVWXY/LB2D1

Departure

Time 2026-05-01 14:35
Airport Hartsfield Jackson Atlanta International Airport (KATL)

Arrival

Time N/A
Airport Amsterdam Airport Schiphol (EHAM)
Time Latitude Longitude Altitude Speed Heading
2026-05-01 14:23 33.64252 -84.42639 1010 ft 0 kts 89°
2026-05-01 14:25 33.64252 -84.42657 1010 ft 2 kts 91°
2026-05-01 14:25 33.64253 -84.42677 1010 ft 2 kts 95°
2026-05-01 14:25 33.64255 -84.42696 1010 ft 2 kts 102°
2026-05-01 14:25 33.64259 -84.42715 1010 ft 2 kts 118°
2026-05-01 14:26 33.64270 -84.42730 1010 ft 2 kts 160°
2026-05-01 14:26 33.64281 -84.42733 1010 ft 0 kts 179°
2026-05-01 14:27 33.64267 -84.42733 1010 ft 6 kts 180°
2026-05-01 14:27 33.64201 -84.42733 1010 ft 13 kts 180°
2026-05-01 14:28 33.63942 -84.42733 1010 ft 20 kts 180°
2026-05-01 14:28 33.63808 -84.42733 1010 ft 18 kts 180°
2026-05-01 14:28 33.63704 -84.42732 1010 ft 12 kts 174°
2026-05-01 14:28 33.63654 -84.42673 1010 ft 9 kts 105°
2026-05-01 14:29 33.63655 -84.42608 1010 ft 8 kts 90°
2026-05-01 14:29 33.63655 -84.42535 1010 ft 10 kts 90°
2026-05-01 14:30 33.63582 -84.42537 1011 ft 23 kts 270°
2026-05-01 14:30 33.63581 -84.42722 1010 ft 22 kts 270°
2026-05-01 14:30 33.63581 -84.42901 1009 ft 21 kts 270°
2026-05-01 14:31 33.63581 -84.43230 1009 ft 19 kts 270°
2026-05-01 14:31 33.63581 -84.43379 1009 ft 18 kts 270°
2026-05-01 14:31 33.63582 -84.43522 1009 ft 16 kts 270°
2026-05-01 14:31 33.63582 -84.43653 1010 ft 15 kts 270°
2026-05-01 14:32 33.63581 -84.43770 1010 ft 14 kts 269°
2026-05-01 14:32 33.63582 -84.43880 1010 ft 13 kts 270°
2026-05-01 14:32 33.63582 -84.43981 1010 ft 12 kts 270°
2026-05-01 14:32 33.63582 -84.44078 1011 ft 12 kts 270°
2026-05-01 14:33 33.63582 -84.44186 1011 ft 14 kts 270°
2026-05-01 14:33 33.63582 -84.44309 1010 ft 16 kts 270°
2026-05-01 14:33 33.63582 -84.44444 1010 ft 17 kts 270°
2026-05-01 14:33 33.63582 -84.44593 1010 ft 18 kts 270°
2026-05-01 14:34 33.63570 -84.44743 1009 ft 17 kts 244°
2026-05-01 14:34 33.63493 -84.44773 1009 ft 10 kts 147°
2026-05-01 14:34 33.63471 -84.44699 1009 ft 9 kts 88°
2026-05-01 14:34 33.63471 -84.44454 1011 ft 58 kts 90°
2026-05-01 14:35 33.63471 -84.43725 1010 ft 115 kts 90°
2026-05-01 14:35 33.63470 -84.42559 1019 ft 163 kts 90°
2026-05-01 14:35 33.63463 -84.41146 1434 ft 181 kts 90°
2026-05-01 14:35 33.63448 -84.39534 1970 ft 206 kts 89°
2026-05-01 14:36 33.63435 -84.37739 2693 ft 219 kts 89°
2026-05-01 14:36 33.63434 -84.35914 3448 ft 220 kts 90°
2026-05-01 14:36 33.63428 -84.34002 3689 ft 239 kts 90°
2026-05-01 14:36 33.63415 -84.31926 3889 ft 258 kts 90°
2026-05-01 14:37 33.63394 -84.29716 4316 ft 270 kts 89°
2026-05-01 14:37 33.63372 -84.27422 4831 ft 279 kts 89°
2026-05-01 14:37 33.63371 -84.25073 5418 ft 283 kts 89°
2026-05-01 14:37 33.63378 -84.22727 6043 ft 286 kts 89°
2026-05-01 14:38 33.63387 -84.20334 6709 ft 288 kts 90°
2026-05-01 14:38 33.63396 -84.17927 7330 ft 290 kts 90°
2026-05-01 14:38 33.63403 -84.15483 7907 ft 295 kts 90°
2026-05-01 14:38 33.63422 -84.13002 8512 ft 300 kts 87°
2026-05-01 14:39 33.63790 -84.10533 9119 ft 303 kts 68°
2026-05-01 14:39 33.64852 -84.08393 9707 ft 303 kts 46°
2026-05-01 14:39 33.66320 -84.06557 10251 ft 308 kts 41°
2026-05-01 14:39 33.67908 -84.04731 10497 ft 324 kts 40°
2026-05-01 14:40 33.69593 -84.02808 10701 ft 341 kts 41°
2026-05-01 14:40 33.71354 -84.00781 10902 ft 358 kts 41°
2026-05-01 14:40 33.73187 -83.98658 11111 ft 374 kts 41°
2026-05-01 14:40 33.75065 -83.96468 11316 ft 387 kts 41°
2026-05-01 14:41 33.77023 -83.94177 11684 ft 395 kts 41°
2026-05-01 14:41 33.79003 -83.91857 12155 ft 401 kts 41°
2026-05-01 14:41 33.81013 -83.89499 12628 ft 404 kts 41°
2026-05-01 14:41 33.83022 -83.87139 13305 ft 403 kts 41°
2026-05-01 14:42 33.85034 -83.84775 13806 ft 407 kts 41°
2026-05-01 14:42 33.87078 -83.82374 14180 ft 412 kts 41°
2026-05-01 14:42 33.89113 -83.79981 14609 ft 416 kts 40°
2026-05-01 14:42 33.91196 -83.77533 15016 ft 420 kts 40°
2026-05-01 14:43 33.93303 -83.75052 15420 ft 424 kts 40°
2026-05-01 14:43 33.95332 -83.72492 15794 ft 431 kts 45°
2026-05-01 14:43 33.97207 -83.69629 16195 ft 437 kts 49°
2026-05-01 14:43 33.99037 -83.66664 16567 ft 441 kts 49°
2026-05-01 14:44 34.00850 -83.63700 16936 ft 445 kts 49°
2026-05-01 14:44 34.04571 -83.57618 17668 ft 453 kts 48°
2026-05-01 14:44 34.05825 -83.55569 17952 ft 455 kts 49°
2026-05-01 14:45 34.08330 -83.51473 18484 ft 459 kts 48°
2026-05-01 14:45 34.11511 -83.46272 18985 ft 465 kts 48°
2026-05-01 14:45 34.14075 -83.42074 19371 ft 469 kts 48°
2026-05-01 14:46 34.15361 -83.39968 19571 ft 471 kts 48°
2026-05-01 14:46 34.19278 -83.33543 20187 ft 478 kts 48°
2026-05-01 14:46 34.21264 -83.30282 20487 ft 481 kts 47°
2026-05-01 14:47 34.23266 -83.26990 20769 ft 485 kts 47°
2026-05-01 14:47 34.25246 -83.23733 21051 ft 488 kts 47°
2026-05-01 14:47 34.27266 -83.20406 21339 ft 491 kts 47°
2026-05-01 14:48 34.31325 -83.13716 22053 ft 494 kts 48°
2026-05-01 14:48 34.33379 -83.10358 22337 ft 497 kts 47°
2026-05-01 14:48 34.37531 -83.03577 22884 ft 503 kts 47°
2026-05-01 14:49 34.41727 -82.96709 23409 ft 510 kts 47°
2026-05-01 14:49 34.45926 -82.89819 23891 ft 515 kts 47°
2026-05-01 14:50 34.49513 -82.83924 24284 ft 519 kts 47°
2026-05-01 14:50 34.54497 -82.75715 24857 ft 524 kts 47°
2026-05-01 14:51 34.56669 -82.72133 25076 ft 526 kts 47°
2026-05-01 14:51 34.61025 -82.64938 25503 ft 531 kts 47°
2026-05-01 14:52 34.65413 -82.57675 25932 ft 535 kts 47°
2026-05-01 14:52 34.67604 -82.54005 26159 ft 537 kts 48°
2026-05-01 14:52 34.71973 -82.46571 26596 ft 542 kts 48°
2026-05-01 14:53 34.74137 -82.42878 26804 ft 543 kts 48°
2026-05-01 14:53 34.76335 -82.39127 27048 ft 545 kts 47°
2026-05-01 14:53 34.78540 -82.35360 27271 ft 546 kts 47°
2026-05-01 14:53 34.80750 -82.31581 27478 ft 548 kts 47°
2026-05-01 14:54 34.82968 -82.27785 27682 ft 550 kts 47°
2026-05-01 14:54 34.85194 -82.23972 27885 ft 552 kts 47°
2026-05-01 14:54 34.87395 -82.20198 28085 ft 554 kts 47°
2026-05-01 14:54 34.89623 -82.16372 28275 ft 555 kts 47°
2026-05-01 14:55 34.91866 -82.12518 28466 ft 557 kts 47°
2026-05-01 14:55 34.94111 -82.08656 28631 ft 559 kts 47°
2026-05-01 14:55 34.96367 -82.04769 28854 ft 561 kts 47°
2026-05-01 14:55 34.98620 -82.00885 29052 ft 562 kts 47°
2026-05-01 14:56 35.00886 -81.96975 29221 ft 564 kts 47°
2026-05-01 14:56 35.03156 -81.93056 29444 ft 565 kts 47°
2026-05-01 14:56 35.05438 -81.89234 29731 ft 562 kts 45°
2026-05-01 14:56 35.07786 -81.85419 29988 ft 561 kts 45°
2026-05-01 14:57 35.10158 -81.81620 30217 ft 561 kts 44°
2026-05-01 14:57 35.14902 -81.74044 30593 ft 562 kts 44°
2026-05-01 14:57 35.17275 -81.70234 30806 ft 562 kts 44°
2026-05-01 14:58 35.19645 -81.66413 30992 ft 563 kts 44°
2026-05-01 14:58 35.21980 -81.62633 31274 ft 562 kts 44°
2026-05-01 14:58 35.26730 -81.54927 31467 ft 567 kts 44°
2026-05-01 14:59 35.29078 -81.51106 31688 ft 567 kts 44°
2026-05-01 14:59 35.31445 -81.47248 31876 ft 567 kts 43°
2026-05-01 14:59 35.33817 -81.43378 32091 ft 567 kts 43°
2026-05-01 14:59 35.36189 -81.39505 32252 ft 568 kts 43°
2026-05-01 15:00 35.40923 -81.31766 32587 ft 569 kts 43°
2026-05-01 15:00 35.43301 -81.27873 32770 ft 569 kts 44°
2026-05-01 15:00 35.45646 -81.24028 33016 ft 569 kts 43°
2026-05-01 15:01 35.48031 -81.20119 33071 ft 572 kts 43°
2026-05-01 15:01 35.50420 -81.16199 33237 ft 573 kts 43°
2026-05-01 15:01 35.52808 -81.12269 33412 ft 573 kts 43°
2026-05-01 15:01 35.55168 -81.08381 33574 ft 573 kts 43°
2026-05-01 15:02 35.57548 -81.04457 33720 ft 573 kts 43°
2026-05-01 15:02 35.62317 -80.96583 34051 ft 574 kts 43°
2026-05-01 15:02 35.64674 -80.92683 34194 ft 574 kts 43°
2026-05-01 15:03 35.67055 -80.88737 34396 ft 572 kts 43°
2026-05-01 15:03 35.69420 -80.84810 34665 ft 569 kts 43°
2026-05-01 15:03 35.71774 -80.80898 34833 ft 567 kts 43°
2026-05-01 15:03 35.74130 -80.76982 34975 ft 567 kts 43°
2026-05-01 15:04 35.76455 -80.73118 35101 ft 567 kts 43°
2026-05-01 15:04 35.78799 -80.69217 35232 ft 567 kts 43°
2026-05-01 15:04 35.81142 -80.65314 35363 ft 566 kts 43°
2026-05-01 15:04 35.83493 -80.61393 35508 ft 565 kts 43°
2026-05-01 15:05 35.85826 -80.57494 35646 ft 565 kts 43°
2026-05-01 15:05 35.88135 -80.53632 35792 ft 565 kts 43°
2026-05-01 15:05 35.90467 -80.49727 35869 ft 565 kts 43°
2026-05-01 15:05 35.92804 -80.45811 35994 ft 565 kts 43°
2026-05-01 15:06 35.95132 -80.41902 36110 ft 565 kts 43°
2026-05-01 15:06 35.97457 -80.37997 36249 ft 564 kts 43°
2026-05-01 15:06 35.99786 -80.34084 36377 ft 563 kts 43°
2026-05-01 15:06 36.02083 -80.30227 36500 ft 563 kts 43°
2026-05-01 15:07 36.04411 -80.26316 36621 ft 562 kts 43°
2026-05-01 15:07 36.06709 -80.22451 36730 ft 562 kts 43°
2026-05-01 15:07 36.09022 -80.18558 36846 ft 561 kts 43°
2026-05-01 15:07 36.11342 -80.14647 37026 ft 561 kts 44°
2026-05-01 15:08 36.13654 -80.10748 37045 ft 562 kts 44°
2026-05-01 15:08 36.18280 -80.02929 37070 ft 562 kts 44°
2026-05-01 15:09 36.22872 -79.95144 37070 ft 561 kts 44°
2026-05-01 15:09 36.27489 -79.87303 37079 ft 562 kts 44°
2026-05-01 15:10 36.32096 -79.79464 37115 ft 562 kts 44°
2026-05-01 15:10 36.38950 -79.67763 37052 ft 561 kts 44°
2026-05-01 15:11 36.45832 -79.55977 37057 ft 561 kts 44°
2026-05-01 15:12 36.50412 -79.48108 37057 ft 561 kts 44°
2026-05-01 15:12 36.57234 -79.36354 37092 ft 560 kts 44°
2026-05-01 15:14 36.68622 -79.16646 37083 ft 560 kts 44°
2026-05-01 15:14 36.75407 -79.04851 37083 ft 560 kts 44°
2026-05-01 15:15 36.84459 -78.89031 37061 ft 559 kts 44°
2026-05-01 15:16 36.93430 -78.73175 37078 ft 560 kts 45°
2026-05-01 15:18 37.04630 -78.53277 37074 ft 559 kts 45°
2026-05-01 15:19 37.13562 -78.37330 37066 ft 560 kts 45°
2026-05-01 15:19 37.20166 -78.25227 37067 ft 569 kts 52°
2026-05-01 15:20 37.26043 -78.12314 37066 ft 571 kts 52°
2026-05-01 15:21 37.29904 -78.03567 37063 ft 571 kts 52°
2026-05-01 15:21 37.33750 -77.94821 37106 ft 571 kts 52°
2026-05-01 15:22 37.39524 -77.81695 37068 ft 571 kts 53°
2026-05-01 15:22 37.43351 -77.72978 37084 ft 572 kts 53°
2026-05-01 15:23 37.47197 -77.64193 37085 ft 572 kts 53°
2026-05-01 15:23 37.51009 -77.55463 37080 ft 572 kts 53°
2026-05-01 15:24 37.54837 -77.46668 37086 ft 571 kts 53°
2026-05-01 15:24 37.58666 -77.37850 37083 ft 572 kts 54°
2026-05-01 15:25 37.62467 -77.29073 37080 ft 572 kts 54°
2026-05-01 15:25 37.66289 -77.20240 37068 ft 571 kts 52°
2026-05-01 15:26 37.68492 -77.16165 37076 ft 555 kts 40°
2026-05-01 15:26 37.71104 -77.12762 37076 ft 535 kts 28°
2026-05-01 15:26 37.74073 -77.10066 37080 ft 518 kts 19°
2026-05-01 15:26 37.77145 -77.07713 37078 ft 514 kts 17°
2026-05-01 15:27 37.83400 -77.03351 37081 ft 512 kts 15°
2026-05-01 15:28 37.92802 -76.96966 37109 ft 512 kts 15°
2026-05-01 15:28 37.99084 -76.92630 37066 ft 514 kts 16°
2026-05-01 15:29 38.08482 -76.86079 37053 ft 515 kts 16°
2026-05-01 15:30 38.19996 -76.78020 37062 ft 515 kts 17°
2026-05-01 15:31 38.32806 -76.66054 37070 ft 536 kts 30°
2026-05-01 15:31 38.38457 -76.59893 37085 ft 536 kts 31°
2026-05-01 15:32 38.49769 -76.47624 37067 ft 534 kts 30°
2026-05-01 15:34 38.65860 -76.30308 37064 ft 532 kts 31°